Regional Weather Roundup
Issued by NWS

Home | Current Version | Previous Version | Graphics & Text | Print | Product List | Glossary On
Versions: 1 2 3 4 5 6 7 8 9 10 11 12 13 14 15 16 17 18 19 20 21 22 23 24 25 26 27 28 29 30 31 32 33 34 35 36 37 38 39 40 41 42 43 44 45 46 47 48 49 50
000
ASUS45 KSLC 020610
RWRUT

UTAH REGIONAL WEATHER ROUNDUP
NATIONAL WEATHER SERVICE SALT LAKE CITY UT
1200 AM MDT TUE JUN 02 2015

UTZ001>011-023>025-020700-

NORTHERN UTAH

CITY           SKY/WX    TMP DP  RH WIND       PRES   REMARKS
BRIGHAM CITY   PTCLDY    60  48  65 W6        29.89S
HILL AFB       PTCLDY    64  40  40 NE8       29.90F
LOGAN          CLEAR     54  49  83 CALM      29.93S
OGDEN          CLEAR     60  47  61 CALM      29.88F
PROVO AIRPORT  PTCLDY    66  46  48 CALM      29.91R
SALT LAKE CITY PTCLDY    67  52  58 NW6       29.88S
VERNAL         MOCLDY    60  43  53 E6        29.94R
WENDOVER       CLEAR     70  39  32 CALM      29.91S
HEBER CITY     PTCLDY    63  30  29 NE3       29.96R
WEST JORDAN    CLEAR     64  39  39 CALM      29.91R

$$

UTZ012>022-026-027-020700-

SOUTHERN/CENTRAL UTAH

CITY           SKY/WX    TMP DP  RH WIND       PRES   REMARKS
BLANDING       CLEAR     60  22  23 NW3       30.12S
BRYCE CANYON   CLEAR     40  29  64 SW5       30.19F
CEDAR CITY     PTCLDY    60  29  30 S7        30.04S
DELTA          PTCLDY    69  27  20 S13G21    29.91S
HANKSVILLE     PTCLDY    72  23  16 SW7       29.93R
MILFORD        CLEAR     60  34  37 S12       29.98R
MOAB/CYNLANDS  CLEAR     76  20  12 SW16      29.88S
PRICE          CLEAR     70  22  16 W6        29.99S
ST GEORGE      PTCLDY    79  18  10 E7        29.89S
KANAB          CLEAR     63  25  23 S7        30.06R

$$

REGIONAL REPORTS     COLORADO/ARIZONA

CITY           SKY/WX    TMP DP  RH WIND       PRES   REMARKS
CRAIG, CO      CLEAR     52  44  74 CALM      30.01S
GRAND JUNCTION CLEAR     64  30  27 NE7       29.92R
RIFLE          CLEAR     59  40  49 VRB3      29.98S
MONTROSE       CLEAR     65  34  31 SE10      30.04S
CORTEZ         CLEAR     68  19  15 S12       30.08S
PAGE, AZ       MOCLDY    82  19   9 SW9G17    29.96R
GRAND CANYON   PTCLDY    47  25  42 CALM      30.18S
KINGMAN        PTCLDY    75  16  10 S12       29.96S
FLAGSTAFF      MOCLDY    51  27  39 CALM      30.23S

$$

REGIONAL REPORTS    NEVADA/IDAHO/WYOMING

CITY           SKY/WX    TMP DP  RH WIND       PRES   REMARKS
LAS VEGAS, NV  PTCLDY    84  26  12 SW17G25   29.79S
ELY            CLEAR     58  29  33 S12       30.02R
ELKO           CLEAR     56  33  42 SW3       29.97R
POCATELLO, ID  CLEAR     52  52 100 NE3       29.92F
BURLEY         CLEAR     54  49  83 N3        29.88S
EVANSTON, WY   PTCLDY    51  39  63 N6        30.08F
ROCK SPRINGS   PTCLDY    53  38  56 VRB3      30.07S
KEMMERER       CLEAR     50  36  57 E3        30.10R

$$


USA.gov is the U.S. government's official web portal to all federal, state and local government web resources and services.